Flag for Switzerland Weather past 2 weeks in Montreux, Vaud, Switzerland

Now
44 °F

Low clouds.


Feels Like: 44 °F
Forecast: 37 / 46 °F
Wind: 1 mph from Northwest

Location: Aigle

Current Time: Dec 18, 2014 at 4:54:30 PM

Latest Report: Dec 18, 2014 at 4:00 PM


Visibility: 9 mi

Pressure: 30.30 "Hg

Humidity: 92%

Dew point: 42 °F

Location of MontreuxLocation

Historic Weather in Montreux — Graph

°F

Montreux temperature yesterday

Maximum temperature yesterday: 45 °F (at 12:00 AM)
Minimum temperature yesterday: 36 °F (at 7:00 AM)
Average temperature yesterday: 41 °F

Past Weeks' High & Low Weather Summary

 TemperatureHumidityPressure
High56 °F (Dec 13, 1:00 PM)97% (Dec 5, 1:00 AM)30.48 "Hg (Dec 5, 1:00 AM)
Low29 °F (Dec 10, 5:00 AM)39% (Dec 13, 1:00 PM)29.90 "Hg (Dec 13, 2:00 AM)
Average42 °F78%30.11 "Hg
* Reported Dec 3 3:00 PM — Dec 18 3:00 PM, Montreux, Weather by CustomWeather, © 2014

Note: Actual official high and low records may vary slightly from our data, if they occured in-between our weather recording intervals... More about our weather records

Advertising

Montreux weather history for previous 24 hours

 ConditionsComfort  
Time TempWeatherWind HumidityBarometerVisibility
3:00 PM
Dec 18
44 °FQuite cool.3 mph89%30.27 "HgN/A
2:00 PM43 °FQuite cool.2 mph92%30.27 "HgN/A
1:00 PM43 °FLight rain. Overcast.7 mph89%30.27 "Hg6 mi
12:00 PM43 °FQuite cool.2 mph93%30.26 "HgN/A
11:00 AM42 °FQuite cool.3 mph90%30.25 "HgN/A
10:00 AM42 °FLight rain. Overcast.6 mph87%30.23 "Hg6 mi
9:00 AM41 °FQuite cool.5 mph87%30.22 "HgN/A
8:00 AM41 °FQuite cool.9 mph87%30.20 "HgN/A
7:00 AM40 °FLight rain. Overcast.3 mph90%30.19 "Hg10 mi
6:00 AM40 °FQuite cool.7 mph91%30.18 "HgN/A
5:00 AM40 °FChilly.6 mph92%30.17 "HgN/A
4:00 AM40 °FChilly.5 mph90%30.18 "HgN/A
3:00 AM40 °FQuite cool.6 mph90%30.17 "HgN/A
2:00 AM40 °FQuite cool.No wind92%30.17 "HgN/A
1:00 AM40 °FChilly.2 mph94%30.16 "HgN/A
12:00 AM40 °FQuite cool.5 mph93%30.16 "HgN/A
11:00 PM
Dec 17
40 °FQuite cool.2 mph95%30.14 "HgN/A
10:00 PM40 °FChilly.5 mph96%30.12 "HgN/A
9:00 PM40 °FChilly.5 mph95%30.12 "HgN/A
8:00 PM40 °FQuite cool.3 mph93%30.10 "HgN/A
7:00 PM40 °FRain. Overcast.8 mph91%30.06 "Hg2 mi
6:00 PM41 °FQuite cool.7 mph93%30.06 "HgN/A
5:00 PM42 °FQuite cool.8 mph90%30.04 "HgN/A
4:00 PM42 °FRain. Overcast.7 mph88%30.02 "Hg2 mi
Weather by CustomWeather, © 2014

See weather overviewHow to use our weather pages